This is the latest recevied weather packets stored in our database for station/object WC4PEM-15. If no packets are shown the sender has not sent any weather packets the latest 10 day(s).
| Time | Temp. | Humidity | Pressure | Rain* | Wind** | Luminosity | Snow |
|---|---|---|---|---|---|---|---|
| 1777389031 | 25.56° C | 72% | 1020.3 hPa | 0 mm | - | - | - |
| 1777388731 | 26.11° C | 70% | 1020.2 hPa | 0 mm | - | - | - |
| 1777388612 | 26.11° C | 71% | 1020 hPa | 0 mm | - | - | - |
| 1777388431 | 26.11° C | 71% | 1020 hPa | 0 mm | - | - | - |
| 1777388305 | 26.11° C | 74% | 1020 hPa | 0 mm | - | - | - |
| 1777388131 | 26.11° C | 74% | 1020 hPa | 0 mm | - | - | - |
| 1777387831 | 25.56° C | 75% | 1020.2 hPa | 0 mm | - | - | - |
| 1777387772 | 25° C | 76% | 1020.2 hPa | 0 mm | - | - | - |
| 1777387531 | 25° C | 76% | 1020.2 hPa | 0 mm | - | - | - |
| 1777387412 | 25° C | 79% | 1020.1 hPa | 0 mm | - | - | - |
| 1777387231 | 25° C | 79% | 1020.1 hPa | 0 mm | - | - | - |
| 1777386931 | 24.44° C | 80% | 1019.9 hPa | 0 mm | - | - | - |
| 1777386799 | 24.44° C | 82% | 1019.9 hPa | 0 mm | - | - | - |
| 1777386631 | 24.44° C | 82% | 1019.9 hPa | 0 mm | - | - | - |
| 1777386331 | 23.89° C | 84% | 1020.1 hPa | 0 mm | - | - | - |
| 1777386031 | 23.33° C | 87% | 1020.1 hPa | 0 mm | - | - | - |
| 1777385731 | 22.78° C | 90% | 1020 hPa | 0 mm | - | - | - |
| 1777385603 | 22.22° C | 92% | 1019.8 hPa | 0 mm | - | - | - |
| 1777385431 | 22.22° C | 92% | 1019.8 hPa | 0 mm | - | - | - |
| 1777385295 | 21.67° C | 94% | 1019.8 hPa | 0 mm | - | - | - |
| 1777385132 | 21.67° C | 94% | 1019.8 hPa | 0 mm | - | - | - |
| 1777385013 | 21.67° C | 96% | 1019.9 hPa | 0 mm | - | - | - |
| 1777384831 | 21.67° C | 96% | 1019.9 hPa | 0 mm | - | - | - |
| 1777384701 | 21.11° C | 97% | 1019.8 hPa | 0 mm | - | - | - |
| 1777384532 | 21.11° C | 97% | 1019.8 hPa | 0 mm | - | - | - |
* Rain latest hour (hover to see other rain measurements)
** Current wind speed in m/s (hover to see current wind gust speed)